Dades meteomassalio
Diari Summary for Agost 13, 2017 Units:  English    Metric   Both
« Previous Day
Next Day »
Diari Semanal Mensual Anual Personalitzat
  Maxima: Minima: Mijana:
Temperatura: TemperatureC °F 14.1 °F 23.4 °F
Rosada: DewpointC °F 7.7 °F 11.9 °F
Humitat: Humidity % 30 % 50 %
Velocitat del vent: WindSpeedKMH mph 0.0 mph 6.4 mph
Racha vent: WindSpeedGustKMH mph - -
Vent:- - SE
Pressio: PressurehPa in 1014.1 in -
Pluja: 0.0 in    
Historical Graphs
 
 
Tabular Data for Agost 13, 2017
Time Temperature Dew Point Pressure Wind Wind Speed Wind Gust Humidity Rainfall Rate (Hourly) solar Conditions
TemperatureC °F DewpointC °F PressurehPa in Calm     Humidity % HourlyPrecipMM in SolarRadiationWatts/m^2 W/m2 Conditions
00:04 20.1 °F 8.7 °F 1019.2 in Calm     48 % 0.0 in 0.0 W/m2 CLR
00:09 19.8 °F 8.2 °F 1019.2 in Calm     47 % 0.0 in 0.0 W/m2 CLR
00:14 19.7 °F 8.7 °F 1019.2 in Calm     49 % 0.0 in 0.0 W/m2 CLR
00:19 19.6 °F 8.6 °F 1019.2 in Calm     49 % 0.0 in 0.0 W/m2 CLR
00:24 19.4 °F 8.4 °F 1019.2 in Calm     49 % 0.0 in 0.0 W/m2 CLR
00:29 19.2 °F 8.2 °F 1019.2 in Calm     49 % 0.0 in 0.0 W/m2 CLR
00:34 19.1 °F 8.4 °F 1019.2 in Calm     50 % 0.0 in 0.0 W/m2 CLR
00:39 18.9 °F 8.2 °F 1019.2 in Calm     50 % 0.0 in 0.0 W/m2 CLR
00:44 18.7 °F 8.1 °F 1019.2 in Calm     50 % 0.0 in 0.0 W/m2 CLR
00:49 18.6 °F 8.0 °F 1019.2 in Calm     50 % 0.0 in 0.0 W/m2 CLR
00:54 18.5 °F 8.2 °F 1019.2 in Calm     51 % 0.0 in 0.0 W/m2 CLR
00:59 18.5 °F 8.2 °F 1019.2 in Calm     51 % 0.0 in 0.0 W/m2 CLR
01:04 18.6 °F 8.2 °F 1019.2 in Calm     51 % 0.0 in 0.0 W/m2 CLR
01:09 18.5 °F 8.4 °F 1019.2 in Calm     52 % 0.0 in 0.0 W/m2 CLR
01:14 18.3 °F 8.3 °F 1019.2 in Calm     52 % 0.0 in 0.0 W/m2 CLR
01:19 18.2 °F 8.2 °F 1019.2 in Calm     52 % 0.0 in 0.0 W/m2 CLR
01:24 18.0 °F 8.3 °F 1019.2 in Calm     53 % 0.0 in 0.0 W/m2 CLR
01:29 17.9 °F 8.2 °F 1019.2 in Calm     53 % 0.0 in 0.0 W/m2 CLR
01:34 17.8 °F 8.1 °F 1019.2 in Calm     53 % 0.0 in 0.0 W/m2 CLR
01:39 17.7 °F 8.0 °F 1019.2 in Calm     53 % 0.0 in 0.0 W/m2 CLR
01:44 17.6 °F 8.2 °F 1019.2 in Calm     54 % 0.0 in 0.0 W/m2 CLR
01:49 17.5 °F 8.1 °F 1019.2 in Calm     54 % 0.0 in 0.0 W/m2 CLR
01:54 17.4 °F 8.3 °F 1019.2 in Calm     55 % 0.0 in 0.0 W/m2 CLR
01:59 17.2 °F 8.1 °F 1019.2 in Calm     55 % 0.0 in 0.0 W/m2 CLR
02:04 17.1 °F 8.0 °F 1019.2 in Calm     55 % 0.0 in 0.0 W/m2 CLR
02:09 17.0 °F 7.9 °F 1019.2 in Calm     55 % 0.0 in 0.0 W/m2 CLR
02:14 16.8 °F 7.7 °F 1019.2 in Calm     55 % 0.0 in 0.0 W/m2 CLR
02:19 16.7 °F 7.9 °F 1018.8 in Calm     56 % 0.0 in 0.0 W/m2 CLR
02:24 16.7 °F 8.1 °F 1018.8 in Calm     57 % 0.0 in 0.0 W/m2 CLR
02:29 16.6 °F 7.7 °F 1018.8 in Calm     56 % 0.0 in 0.0 W/m2 CLR
02:34 16.5 °F 7.7 °F 1018.8 in Calm     56 % 0.0 in 0.0 W/m2 CLR
02:39 16.4 °F 7.8 °F 1018.8 in Calm     57 % 0.0 in 0.0 W/m2 CLR
02:44 16.3 °F 7.8 °F 1018.8 in Calm     57 % 0.0 in 0.0 W/m2 CLR
02:49 16.2 °F 7.9 °F 1018.8 in Calm     58 % 0.0 in 0.0 W/m2 CLR
02:54 16.2 °F 7.9 °F 1018.8 in Calm     58 % 0.0 in 0.0 W/m2 CLR
02:59 16.1 °F 7.8 °F 1018.8 in Calm     58 % 0.0 in 0.0 W/m2 CLR
03:04 16.1 °F 7.8 °F 1018.8 in Calm     58 % 0.0 in 0.0 W/m2 CLR
03:09 15.9 °F 7.9 °F 1018.8 in Calm     59 % 0.0 in 0.0 W/m2 CLR
03:14 15.8 °F 7.8 °F 1018.8 in Calm     59 % 0.0 in 0.0 W/m2 CLR
03:19 15.7 °F 8.0 °F 1018.8 in Calm     60 % 0.0 in 0.0 W/m2 CLR
03:24 15.7 °F 8.2 °F 1018.8 in Calm     61 % 0.0 in 0.0 W/m2 CLR
03:29 15.7 °F 8.2 °F 1018.8 in Calm     61 % 0.0 in 0.0 W/m2 CLR
03:34 15.8 °F 8.7 °F 1018.8 in Calm     63 % 0.0 in 0.0 W/m2 CLR
03:39 15.8 °F 8.6 °F 1018.8 in Calm     62 % 0.0 in 0.0 W/m2 CLR
03:44 15.9 °F 8.7 °F 1018.8 in Calm     62 % 0.0 in 0.0 W/m2 CLR
03:49 16.1 °F 8.6 °F 1018.8 in Calm     61 % 0.0 in 0.0 W/m2 CLR
03:54 16.1 °F 8.6 °F 1018.8 in Calm     61 % 0.0 in 0.0 W/m2 CLR
03:59 16.1 °F 8.6 °F 1018.8 in Calm     61 % 0.0 in 0.0 W/m2 CLR
04:04 16.0 °F 8.5 °F 1018.8 in Calm     61 % 0.0 in 0.0 W/m2 CLR
04:09 15.9 °F 8.7 °F 1018.8 in Calm     62 % 0.0 in 0.0 W/m2 CLR
04:14 15.8 °F 8.6 °F 1018.8 in Calm     62 % 0.0 in 0.0 W/m2 CLR
04:19 15.8 °F 8.5 °F 1018.8 in Calm     62 % 0.0 in 0.0 W/m2 CLR
04:24 15.7 °F 8.4 °F 1018.8 in Calm     62 % 0.0 in 0.0 W/m2 CLR
04:29 15.6 °F 8.3 °F 1018.8 in Calm     62 % 0.0 in 0.0 W/m2 CLR
04:34 15.4 °F 8.4 °F 1018.8 in Calm     63 % 0.0 in 0.0 W/m2 CLR
04:39 15.4 °F 8.4 °F 1018.8 in Calm     63 % 0.0 in 0.0 W/m2 CLR
04:44 15.4 °F 8.4 °F 1018.8 in Calm     63 % 0.0 in 0.0 W/m2 CLR
04:49 15.6 °F 8.6 °F 1018.8 in Calm     63 % 0.0 in 0.0 W/m2 CLR
04:54 15.7 °F 8.4 °F 1018.8 in Calm     62 % 0.0 in 0.0 W/m2 CLR
04:59 15.6 °F 8.3 °F 1018.8 in Calm     62 % 0.0 in 0.0 W/m2 CLR
05:04 15.4 °F 8.2 °F 1018.8 in Calm     62 % 0.0 in 0.0 W/m2 CLR
05:09 15.3 °F 8.1 °F 1018.8 in Calm     62 % 0.0 in 0.0 W/m2 CLR
05:16 15.2 °F 8.0 °F 1018.8 in Calm     62 % 0.0 in 0.0 W/m2 CLR
05:19 15.3 °F 8.1 °F 1018.8 in Calm     62 % 0.0 in 0.0 W/m2 CLR
05:21 15.3 °F 8.1 °F 1018.8 in Calm     62 % 0.0 in 0.0 W/m2 CLR
05:23 15.3 °F 8.1 °F 1018.8 in Calm     62 % 0.0 in 0.0 W/m2 CLR
05:26 15.3 °F 8.1 °F 1018.8 in Calm     62 % 0.0 in 0.0 W/m2 CLR
05:27 15.3 °F 8.1 °F 1018.8 in Calm     62 % 0.0 in 0.0 W/m2 CLR
05:29 15.3 °F 8.1 °F 1018.8 in Calm     62 % 0.0 in 0.0 W/m2 CLR
05:32 15.3 °F 8.1 °F 1018.8 in Calm     62 % 0.0 in 0.0 W/m2 CLR
05:37 15.4 °F 8.2 °F 1018.8 in Calm     62 % 0.0 in 0.0 W/m2 CLR
05:42 15.4 °F 8.2 °F 1018.8 in Calm     62 % 0.0 in 0.0 W/m2 CLR
05:47 15.4 °F 8.2 °F 1018.8 in Calm     62 % 0.0 in 0.0 W/m2 CLR
05:52 15.4 °F 8.2 °F 1018.8 in Calm     62 % 0.0 in 0.0 W/m2 CLR
05:57 15.3 °F 8.1 °F 1018.8 in Calm     62 % 0.0 in 0.0 W/m2 CLR
06:02 15.2 °F 7.9 °F 1018.8 in Calm     62 % 0.0 in 0.0 W/m2 CLR
06:03 15.2 °F 7.9 °F 1018.8 in Calm     62 % 0.0 in 0.0 W/m2 CLR
06:08 15.1 °F 8.1 °F 1018.8 in Calm     63 % 0.0 in 0.0 W/m2 CLR
06:13 14.9 °F 7.9 °F 1018.8 in Calm     63 % 0.0 in 0.0 W/m2 CLR
06:18 14.8 °F 7.8 °F 1018.8 in Calm     63 % 0.0 in 0.0 W/m2 CLR
06:23 14.8 °F 7.8 °F 1018.8 in Calm     63 % 0.0 in 0.0 W/m2 CLR
06:28 14.6 °F 7.9 °F 1018.8 in Calm     64 % 0.0 in 0.0 W/m2 CLR
06:33 14.6 °F 7.8 °F 1018.8 in Calm     64 % 0.0 in 0.0 W/m2 CLR
06:38 14.4 °F 7.9 °F 1018.8 in Calm     65 % 0.0 in 0.0 W/m2 CLR
06:43 14.2 °F 7.7 °F 1018.8 in Calm     65 % 0.0 in 0.0 W/m2 CLR
06:48 14.2 °F 8.1 °F 1018.8 in Calm     67 % 0.0 in 0.0 W/m2 CLR
06:53 14.2 °F 8.2 °F 1018.8 in Calm     67 % 0.0 in 0.0 W/m2 CLR
06:58 14.2 °F 8.2 °F 1018.8 in Calm     67 % 0.0 in 0.0 W/m2 CLR
07:03 14.2 °F 8.3 °F 1019.2 in Calm     68 % 0.0 in 0.0 W/m2 OVC
07:08 14.2 °F 8.3 °F 1019.2 in Calm     68 % 0.0 in 0.0 W/m2 OVC
07:13 14.2 °F 8.6 °F 1019.2 in Calm     69 % 0.0 in 5.0 W/m2 OVC
07:18 14.2 °F 8.3 °F 1019.2 in Calm     68 % 0.0 in 9.0 W/m2 BKN
07:23 14.1 °F 8.3 °F 1018.8 in Calm     68 % 0.0 in 12.0 W/m2 BKN
07:28 14.1 °F 8.5 °F 1019.2 in Calm     69 % 0.0 in 14.0 W/m2 BKN
07:33 14.2 °F 8.6 °F 1019.2 in Calm     69 % 0.0 in 16.0 W/m2 BKN
07:38 14.3 °F 8.7 °F 1019.2 in Calm     69 % 0.0 in 21.0 W/m2 BKN
07:43 14.5 °F 8.9 °F 1019.2 in Calm     69 % 0.0 in 28.0 W/m2 BKN
07:48 14.7 °F 9.1 °F 1019.2 in Calm     69 % 0.0 in 39.0 W/m2 BKN
07:53 14.9 °F 9.2 °F 1019.2 in Calm     69 % 0.0 in 42.0 W/m2 BKN
07:58 15.2 °F 9.3 °F 1019.2 in Calm     68 % 0.0 in 54.0 W/m2 SCT
08:03 15.5 °F 9.6 °F 1019.2 in Calm     68 % 0.0 in 76.0 W/m2 FEW
08:08 15.7 °F 9.8 °F 1019.2 in Calm     68 % 0.0 in 77.0 W/m2 FEW
08:13 15.9 °F 9.8 °F 1019.2 in Calm     67 % 0.0 in 111.0 W/m2 CLR
08:18 16.2 °F 10.1 °F 1019.2 in Calm     67 % 0.0 in 127.0 W/m2 CLR
08:23 16.5 °F 10.1 °F 1019.2 in Calm     66 % 0.0 in 144.0 W/m2 CLR
08:28 16.9 °F 10.3 °F 1019.2 in Calm     65 % 0.0 in 160.0 W/m2 CLR
08:33 17.4 °F 10.6 °F 1019.2 in Calm     64 % 0.0 in 185.0 W/m2 CLR
08:38 17.9 °F 10.8 °F 1019.2 in Calm     63 % 0.0 in 200.0 W/m2 CLR
08:43 18.4 °F 11.0 °F 1019.2 in Calm     62 % 0.0 in 218.0 W/m2 CLR
08:48 18.7 °F 11.0 °F 1019.2 in Calm     61 % 0.0 in 236.0 W/m2 CLR
08:53 18.8 °F 11.2 °F 1018.8 in Calm     61 % 0.0 in 248.0 W/m2 CLR
08:58 19.1 °F 11.4 °F 1018.8 in Calm     61 % 0.0 in 258.0 W/m2 CLR
09:03 19.5 °F 11.8 °F 1019.2 in Calm     61 % 0.0 in 297.0 W/m2 CLR
09:08 20.3 °F 12.0 °F 1019.2 in Calm     59 % 0.0 in 315.0 W/m2 CLR
09:13 20.9 °F 12.1 °F 1019.2 in Calm     57 % 0.0 in 341.0 W/m2 CLR
09:18 21.3 °F 11.9 °F 1018.8 in Calm     55 % 0.0 in 362.0 W/m2 CLR
09:23 21.9 °F 12.4 °F 1018.8 in Calm     55 % 0.0 in 381.0 W/m2 CLR
09:28 22.4 °F 12.1 °F 1018.8 in Calm     52 % 0.0 in 227.0 W/m2 CLR
09:33 22.8 °F 11.6 °F 1018.8 in Calm     49 % 0.0 in 213.0 W/m2 CLR
09:38 23.1 °F 11.1 °F 1018.8 in NW 8.0 mph 8.0 mph 47 % 0.0 in 424.0 W/m2 CLR
09:43 23.2 °F 11.2 °F 1018.8 in West 7.4 mph 7.4 mph 47 % 0.0 in 462.0 W/m2 CLR
09:48 23.3 °F 11.3 °F 1018.8 in NW 6.4 mph 6.4 mph 47 % 0.0 in 485.0 W/m2 CLR
09:53 23.6 °F 11.3 °F 1018.8 in WNW 5.6 mph 5.6 mph 46 % 0.0 in 473.0 W/m2 CLR
09:58 23.7 °F 11.4 °F 1018.8 in WNW 11.1 mph 11.1 mph 46 % 0.0 in 345.0 W/m2 CLR
10:03 23.7 °F 11.1 °F 1019.2 in WNW 5.6 mph 5.6 mph 45 % 0.0 in 494.0 W/m2 CLR
10:08 23.7 °F 11.1 °F 1019.2 in NW 9.3 mph 9.3 mph 45 % 0.0 in 367.0 W/m2 CLR
10:13 23.8 °F 11.1 °F 1019.2 in WNW 9.3 mph 9.3 mph 45 % 0.0 in 515.0 W/m2 CLR
10:18 23.9 °F 11.3 °F 1019.2 in WSW 9.7 mph 9.7 mph 45 % 0.0 in 541.0 W/m2 CLR
10:23 24.1 °F 11.1 °F 1019.2 in SW 9.3 mph 9.3 mph 44 % 0.0 in 531.0 W/m2 CLR
10:28 24.3 °F 11.3 °F 1019.2 in WNW 9.3 mph 9.3 mph 44 % 0.0 in 589.0 W/m2 CLR
10:33 24.4 °F 11.3 °F 1019.2 in West 6.4 mph 6.4 mph 44 % 0.0 in 584.0 W/m2 CLR
10:38 24.5 °F 11.1 °F 1019.2 in West 5.6 mph 5.6 mph 43 % 0.0 in 563.0 W/m2 CLR
10:43 24.7 °F 11.6 °F 1019.2 in NW 14.8 mph 14.8 mph 44 % 0.0 in 608.0 W/m2 CLR
10:48 24.8 °F 11.3 °F 1019.2 in NNW 11.1 mph 11.1 mph 43 % 0.0 in 501.0 W/m2 CLR
10:53 24.8 °F 11.3 °F 1019.2 in NNE 8.0 mph 8.0 mph 43 % 0.0 in 596.0 W/m2 CLR
10:58 25.2 °F 11.3 °F 1019.2 in West 5.6 mph 5.6 mph 42 % 0.0 in 642.0 W/m2 CLR
11:03 25.3 °F 11.5 °F 1019.2 in Calm     42 % 0.0 in 643.0 W/m2 CLR
11:08 25.7 °F 11.4 °F 1019.2 in NNW 11.1 mph 11.1 mph 41 % 0.0 in 642.0 W/m2 CLR
11:13 25.7 °F 11.5 °F 1018.8 in NNW 4.8 mph 4.8 mph 41 % 0.0 in 673.0 W/m2 CLR
11:18 25.9 °F 11.3 °F 1018.8 in Calm     40 % 0.0 in 693.0 W/m2 CLR
11:23 26.2 °F 11.5 °F 1018.8 in North 7.4 mph 7.4 mph 40 % 0.0 in 719.0 W/m2 CLR
11:28 26.3 °F 11.6 °F 1018.8 in North 9.3 mph 9.3 mph 40 % 0.0 in 700.0 W/m2 CLR
11:33 26.1 °F 11.1 °F 1018.8 in NNE 1.9 mph   39 % 0.0 in 719.0 W/m2 CLR
11:38 26.1 °F 11.1 °F 1018.8 in Calm     39 % 0.0 in 731.0 W/m2 CLR
11:43 26.3 °F 11.3 °F 1018.8 in Calm     39 % 0.0 in 693.0 W/m2 CLR
11:48 26.7 °F 11.6 °F 1018.8 in ENE 5.6 mph   39 % 0.0 in 766.0 W/m2 CLR
11:53 27.2 °F 11.7 °F 1018.8 in Calm     38 % 0.0 in 708.0 W/m2 CLR
11:59 27.7 °F 11.7 °F 1018.8 in Calm     37 % 0.0 in 661.0 W/m2 CLR
12:04 27.8 °F 11.8 °F 1018.5 in East 1.6 mph 1.6 mph 37 % 0.0 in 800.0 W/m2 CLR
12:09 27.7 °F 11.7 °F 1018.5 in SE 3.7 mph 3.7 mph 37 % 0.0 in 791.0 W/m2 CLR
12:14 27.5 °F 11.5 °F 1018.5 in Calm     37 % 0.0 in 756.0 W/m2 CLR
12:19 27.7 °F 12.1 °F 1018.5 in ENE 7.4 mph   38 % 0.0 in 789.0 W/m2 CLR
12:24 27.9 °F 11.8 °F 1018.5 in NNE 9.3 mph   37 % 0.0 in 788.0 W/m2 CLR
12:29 28.0 °F 11.9 °F 1018.5 in ENE 11.1 mph 11.1 mph 37 % 0.0 in 791.0 W/m2 CLR
12:34 28.0 °F 11.9 °F 1018.2 in ENE 5.6 mph   37 % 0.0 in 830.0 W/m2 CLR
12:39 28.1 °F 11.6 °F 1018.2 in East 3.7 mph 3.7 mph 36 % 0.0 in 831.0 W/m2 CLR
12:44 27.8 °F 11.4 °F 1018.2 in Calm     36 % 0.0 in 831.0 W/m2 CLR
12:49 28.0 °F 11.1 °F 1018.2 in Calm     35 % 0.0 in 791.0 W/m2 CLR
12:54 28.4 °F 11.0 °F 1018.2 in Calm     34 % 0.0 in 765.0 W/m2 CLR
12:59 28.5 °F 11.1 °F 1018.2 in Calm     34 % 0.0 in 853.0 W/m2 CLR
13:04 28.6 °F 10.7 °F 1018.2 in West 1.9 mph 1.9 mph 33 % 0.0 in 828.0 W/m2 CLR
13:09 28.6 °F 11.2 °F 1017.8 in Calm     34 % 0.0 in 868.0 W/m2 CLR
13:14 28.8 °F 11.3 °F 1017.8 in East 13.0 mph 13.0 mph 34 % 0.0 in 872.0 W/m2 CLR
13:19 28.7 °F 11.7 °F 1017.8 in NE 1.9 mph   35 % 0.0 in 874.0 W/m2 CLR
13:24 28.9 °F 11.9 °F 1017.8 in NNE 9.3 mph 10.9 mph 35 % 0.0 in 877.0 W/m2 CLR
13:29 28.9 °F 11.5 °F 1017.5 in NNE 5.6 mph 5.6 mph 34 % 0.0 in 879.0 W/m2 CLR
13:34 28.9 °F 11.9 °F 1017.5 in SW 5.6 mph 5.6 mph 35 % 0.0 in 881.0 W/m2 CLR
13:39 29.1 °F 12.1 °F 1017.5 in NE 9.7 mph 9.7 mph 35 % 0.0 in 886.0 W/m2 CLR
13:44 29.3 °F 11.8 °F 1017.5 in NNE 5.6 mph 5.6 mph 34 % 0.0 in 884.0 W/m2 CLR
13:49 29.4 °F 11.9 °F 1017.2 in NE 9.7 mph 9.7 mph 34 % 0.0 in 888.0 W/m2 CLR
13:54 29.7 °F 12.2 °F 1017.2 in NE 1.9 mph 1.9 mph 34 % 0.0 in 889.0 W/m2 CLR
13:59 30.0 °F 11.9 °F 1017.2 in Calm     33 % 0.0 in 886.0 W/m2 CLR
14:04 30.1 °F 12.0 °F 1017.2 in NNE 8.0 mph 8.2 mph 33 % 0.0 in 891.0 W/m2 CLR
14:09 30.1 °F 12.1 °F 1016.8 in North 9.3 mph 9.3 mph 33 % 0.0 in 888.0 W/m2 CLR
14:14 30.4 °F 11.8 °F 1016.8 in ENE 18.5 mph 18.5 mph 32 % 0.0 in 889.0 W/m2 CLR
14:19 30.3 °F 12.2 °F 1016.8 in ENE 5.6 mph 6.4 mph 33 % 0.0 in 888.0 W/m2 CLR
14:24 30.4 °F 12.3 °F 1016.8 in North 5.6 mph 5.6 mph 33 % 0.0 in 886.0 W/m2 CLR
14:29 30.7 °F 12.1 °F 1016.8 in ENE 18.5 mph 18.5 mph 32 % 0.0 in 888.0 W/m2 CLR
14:34 30.8 °F 12.2 °F 1016.5 in ENE 9.3 mph 9.3 mph 32 % 0.0 in 882.0 W/m2 CLR
14:39 30.7 °F 11.6 °F 1016.5 in ENE 13.0 mph 13.0 mph 31 % 0.0 in 889.0 W/m2 CLR
14:44 30.5 °F 11.9 °F 1016.5 in NW 5.6 mph 5.6 mph 32 % 0.0 in 888.0 W/m2 CLR
14:49 31.0 °F 11.4 °F 1016.5 in East 11.1 mph 11.1 mph 30 % 0.0 in 798.0 W/m2 CLR
14:54 31.2 °F 11.6 °F 1016.5 in NNE 9.3 mph 9.3 mph 30 % 0.0 in 882.0 W/m2 CLR
14:59 31.4 °F 12.2 °F 1016.1 in Calm     31 % 0.0 in 877.0 W/m2 CLR
15:04 31.6 °F 11.9 °F 1016.1 in East 14.8 mph 14.8 mph 30 % 0.0 in 870.0 W/m2 CLR
15:09 31.7 °F 12.0 °F 1016.1 in ENE 13.0 mph 13.0 mph 30 % 0.0 in 865.0 W/m2 CLR
15:14 31.8 °F 12.1 °F 1016.1 in East 11.1 mph 11.1 mph 30 % 0.0 in 863.0 W/m2 CLR
15:19 31.8 °F 12.1 °F 1016.1 in East 20.4 mph 20.4 mph 30 % 0.0 in 858.0 W/m2 CLR
15:24 31.3 °F 12.1 °F 1015.8 in ESE 12.9 mph 12.9 mph 31 % 0.0 in 856.0 W/m2 CLR
15:29 31.3 °F 12.7 °F 1015.8 in ENE 13.0 mph 13.0 mph 32 % 0.0 in 775.0 W/m2 CLR
15:34 31.2 °F 12.6 °F 1015.8 in Calm     32 % 0.0 in 682.0 W/m2 CLR
15:39 31.6 °F 12.8 °F 1015.8 in ESE 7.4 mph 7.4 mph 32 % 0.0 in 802.0 W/m2 CLR
15:44 31.4 °F 12.2 °F 1015.8 in Calm     31 % 0.0 in 798.0 W/m2 CLR
15:49 31.7 °F 14.4 °F 1015.8 in SE 22.2 mph 22.2 mph 35 % 0.0 in 812.0 W/m2 CLR
15:54 31.8 °F 14.4 °F 1015.5 in ESE 3.2 mph 3.2 mph 35 % 0.0 in 800.0 W/m2 CLR
15:59 31.9 °F 14.1 °F 1015.5 in East 13.0 mph 13.0 mph 34 % 0.0 in 789.0 W/m2 CLR
16:04 31.9 °F 13.2 °F 1015.5 in ESE 14.8 mph 14.8 mph 32 % 0.0 in 779.0 W/m2 CLR
16:09 31.7 °F 14.3 °F 1015.5 in ESE 9.3 mph 9.3 mph 35 % 0.0 in 765.0 W/m2 CLR
16:14 31.6 °F 15.2 °F 1015.5 in ESE 13.0 mph 13.0 mph 37 % 0.0 in 752.0 W/m2 CLR
16:19 31.8 °F 15.3 °F 1015.1 in NE 9.3 mph 9.3 mph 37 % 0.0 in 744.0 W/m2 CLR
16:24 31.8 °F 15.7 °F 1015.1 in ESE 16.7 mph 16.7 mph 38 % 0.0 in 737.0 W/m2 CLR
16:29 31.6 °F 16.3 °F 1015.1 in East 20.4 mph 20.4 mph 40 % 0.0 in 714.0 W/m2 CLR
16:34 31.3 °F 16.1 °F 1015.1 in East 22.2 mph 22.2 mph 40 % 0.0 in 707.0 W/m2 CLR
16:39 31.4 °F 16.6 °F 1015.1 in East 20.4 mph 20.4 mph 41 % 0.0 in 698.0 W/m2 CLR
16:44 31.4 °F 16.6 °F 1015.1 in East 14.8 mph 14.8 mph 41 % 0.0 in 687.0 W/m2 CLR
16:49 31.4 °F 16.9 °F 1014.8 in ENE 17.7 mph 17.7 mph 42 % 0.0 in 668.0 W/m2 CLR
16:54 31.4 °F 16.2 °F 1014.8 in ESE 18.5 mph 18.5 mph 40 % 0.0 in 661.0 W/m2 CLR
16:59 31.5 °F 16.7 °F 1014.8 in East 14.8 mph 14.8 mph 41 % 0.0 in 647.0 W/m2 CLR
17:04 31.4 °F 16.9 °F 1014.8 in East 17.7 mph 17.7 mph 42 % 0.0 in 633.0 W/m2 CLR
17:09 31.1 °F 17.0 °F 1014.8 in East 16.7 mph 16.7 mph 43 % 0.0 in 624.0 W/m2 CLR
17:14 31.2 °F 17.1 °F 1014.8 in ESE 16.7 mph 16.7 mph 43 % 0.0 in 608.0 W/m2 CLR
17:19 31.4 °F 17.0 °F 1014.8 in ESE 16.7 mph 16.7 mph 42 % 0.0 in 594.0 W/m2 CLR
17:24 31.3 °F 16.9 °F 1014.8 in SE 16.7 mph 16.7 mph 42 % 0.0 in 584.0 W/m2 CLR
17:29 31.3 °F 16.4 °F 1014.8 in SE 18.5 mph 18.5 mph 41 % 0.0 in 570.0 W/m2 CLR
17:34 31.1 °F 16.7 °F 1014.8 in SE 16.7 mph 16.7 mph 42 % 0.0 in 552.0 W/m2 CLR
17:39 31.2 °F 16.7 °F 1014.4 in ESE 16.7 mph 16.7 mph 42 % 0.0 in 541.0 W/m2 CLR
17:44 31.1 °F 16.6 °F 1014.8 in ESE 18.5 mph 18.5 mph 42 % 0.0 in 531.0 W/m2 CLR
17:49 31.0 °F 16.2 °F 1014.4 in ESE 14.8 mph 14.8 mph 41 % 0.0 in 515.0 W/m2 CLR
17:54 31.1 °F 16.7 °F 1014.4 in SE 22.2 mph 22.2 mph 42 % 0.0 in 501.0 W/m2 CLR
17:59 30.9 °F 16.8 °F 1014.4 in SSE 18.5 mph 18.5 mph 43 % 0.0 in 478.0 W/m2 CLR
18:04 30.9 °F 16.8 °F 1014.4 in ESE 18.5 mph 18.5 mph 43 % 0.0 in 462.0 W/m2 CLR
18:09 31.0 °F 17.3 °F 1014.4 in SE 14.8 mph 14.8 mph 44 % 0.0 in 452.0 W/m2 CLR
18:14 30.8 °F 17.1 °F 1014.4 in ESE 25.9 mph 25.9 mph 44 % 0.0 in 438.0 W/m2 CLR
18:19 30.5 °F 17.2 °F 1014.4 in SSE 18.5 mph 18.5 mph 45 % 0.0 in 418.0 W/m2 CLR
18:20 30.5 °F 17.2 °F 1014.4 in SE 22.2 mph 22.2 mph 45 % 0.0 in 413.0 W/m2 CLR
18:25 30.6 °F 16.9 °F 1014.4 in SSE 18.5 mph 18.5 mph 44 % 0.0 in 397.0 W/m2 CLR
18:30 30.5 °F 16.9 °F 1014.4 in SE 20.4 mph 20.4 mph 44 % 0.0 in 385.0 W/m2 CLR
18:35 30.4 °F 16.8 °F 1014.1 in ESE 25.9 mph 25.9 mph 44 % 0.0 in 373.0 W/m2 CLR
18:40 30.3 °F 16.7 °F 1014.4 in ESE 17.7 mph 17.7 mph 44 % 0.0 in 357.0 W/m2 CLR
18:45 30.1 °F 16.8 °F 1014.4 in East 24.1 mph 24.1 mph 45 % 0.0 in 338.0 W/m2 CLR
18:50 29.9 °F 16.7 °F 1014.1 in SE 22.2 mph 22.2 mph 45 % 0.0 in 325.0 W/m2 CLR
18:55 29.7 °F 16.5 °F 1014.1 in SE 24.1 mph 24.1 mph 45 % 0.0 in 309.0 W/m2 CLR
19:00 29.6 °F 16.4 °F 1014.1 in SE 25.7 mph 25.7 mph 45 % 0.0 in 292.0 W/m2 CLR
19:05 29.6 °F 16.4 °F 1014.4 in East 20.4 mph 20.4 mph 45 % 0.0 in 278.0 W/m2 CLR
19:10 29.6 °F 16.4 °F 1014.4 in SE 24.1 mph 24.1 mph 45 % 0.0 in 262.0 W/m2 CLR
19:15 29.5 °F 16.3 °F 1014.4 in SE 20.4 mph 20.4 mph 45 % 0.0 in 243.0 W/m2 CLR
19:21 29.4 °F 16.2 °F 1014.4 in East 20.4 mph 20.4 mph 45 % 0.0 in 227.0 W/m2 CLR
19:25 29.3 °F 16.1 °F 1014.4 in ESE 25.9 mph 25.9 mph 45 % 0.0 in 209.0 W/m2 CLR
19:31 29.2 °F 16.1 °F 1014.4 in East 16.7 mph 16.7 mph 45 % 0.0 in 193.0 W/m2 CLR
19:36 29.2 °F 15.7 °F 1014.1 in SE 24.1 mph 24.1 mph 44 % 0.0 in 179.0 W/m2 CLR
19:37 29.1 °F 15.9 °F 1014.1 in SE 24.1 mph 24.1 mph 45 % 0.0 in 178.0 W/m2 CLR
19:42 29.0 °F 15.5 °F 1014.1 in ESE 24.1 mph 24.1 mph 44 % 0.0 in 156.0 W/m2 CLR
19:47 29.0 °F 14.8 °F 1014.1 in SE 19.3 mph 19.3 mph 42 % 0.0 in 141.0 W/m2 CLR
19:52 28.9 °F 15.1 °F 1014.1 in SE 16.7 mph 16.7 mph 43 % 0.0 in 125.0 W/m2 CLR
19:57 28.9 °F 15.4 °F 1014.1 in SSE 18.5 mph 18.5 mph 44 % 0.0 in 109.0 W/m2 CLR
20:02 28.8 °F 15.0 °F 1014.4 in SE 18.5 mph 18.5 mph 43 % 0.0 in 91.0 W/m2 CLR
20:07 28.7 °F 14.9 °F 1014.4 in ESE 18.5 mph 18.5 mph 43 % 0.0 in 77.0 W/m2 FEW
20:12 28.7 °F 15.2 °F 1014.4 in SSE 14.8 mph 14.8 mph 44 % 0.0 in 63.0 W/m2 SCT
20:17 28.6 °F 15.5 °F 1014.8 in SE 16.7 mph 16.7 mph 45 % 0.0 in 54.0 W/m2 SCT
20:22 28.5 °F 15.4 °F 1014.8 in SE 18.5 mph 18.5 mph 45 % 0.0 in 46.0 W/m2 SCT
20:27 28.4 °F 15.7 °F 1014.8 in SE 18.5 mph 18.5 mph 46 % 0.0 in 33.0 W/m2 BKN
20:32 28.2 °F 15.5 °F 1014.4 in SE 16.7 mph 16.7 mph 46 % 0.0 in 25.0 W/m2 BKN
20:37 28.1 °F 15.7 °F 1014.8 in SE 16.1 mph 16.1 mph 47 % 0.0 in 19.0 W/m2 BKN
20:42 27.9 °F 15.6 °F 1014.8 in SSE 16.7 mph 16.7 mph 47 % 0.0 in 14.0 W/m2 BKN
20:47 27.8 °F 15.8 °F 1014.8 in SSE 14.8 mph 14.8 mph 48 % 0.0 in 11.0 W/m2 BKN
20:52 27.7 °F 16.1 °F 1014.8 in SE 14.8 mph 14.8 mph 49 % 0.0 in 11.0 W/m2 BKN
20:57 27.6 °F 16.2 °F 1014.8 in South 16.7 mph 16.7 mph 50 % 0.0 in 12.0 W/m2 BKN
21:02 27.6 °F 16.5 °F 1015.1 in South 13.0 mph 13.0 mph 51 % 0.0 in 11.0 W/m2 BKN
21:07 27.3 °F 16.6 °F 1014.8 in South 16.7 mph 16.7 mph 52 % 0.0 in 0.0 W/m2 OVC
21:12 27.2 °F 16.5 °F 1014.8 in South 14.8 mph 14.8 mph 52 % 0.0 in 0.0 W/m2 CLR
21:17 27.1 °F 16.7 °F 1014.8 in SSE 16.7 mph 16.7 mph 53 % 0.0 in 0.0 W/m2 CLR
21:22 26.9 °F 16.3 °F 1014.8 in SSE 20.4 mph 20.4 mph 52 % 0.0 in 0.0 W/m2 CLR
21:27 26.8 °F 16.4 °F 1014.8 in SSE 11.1 mph 11.1 mph 53 % 0.0 in 0.0 W/m2 CLR
21:32 26.7 °F 16.3 °F 1014.8 in SSE 14.8 mph 14.8 mph 53 % 0.0 in 0.0 W/m2 CLR
21:37 26.6 °F 16.2 °F 1014.8 in SSE 14.8 mph 14.8 mph 53 % 0.0 in 0.0 W/m2 CLR
21:42 26.5 °F 16.4 °F 1014.8 in SSE 16.7 mph 16.7 mph 54 % 0.0 in 0.0 W/m2 CLR
21:47 26.4 °F 16.3 °F 1014.8 in SSE 18.5 mph 18.5 mph 54 % 0.0 in 0.0 W/m2 CLR
21:52 26.3 °F 16.3 °F 1014.8 in South 9.3 mph 9.3 mph 54 % 0.0 in 0.0 W/m2 CLR
21:57 26.3 °F 16.2 °F 1014.8 in SSE 14.8 mph 14.8 mph 54 % 0.0 in 0.0 W/m2 CLR
22:02 26.2 °F 16.4 °F 1015.1 in SSE 9.3 mph 9.3 mph 55 % 0.0 in 0.0 W/m2 CLR
22:07 26.1 °F 16.4 °F 1015.1 in South 9.3 mph 9.3 mph 55 % 0.0 in 0.0 W/m2 CLR
22:12 26.0 °F 16.3 °F 1015.1 in SSE 7.4 mph 7.4 mph 55 % 0.0 in 0.0 W/m2 CLR
22:17 26.0 °F 16.3 °F 1015.5 in Calm     55 % 0.0 in 0.0 W/m2 CLR
22:22 25.9 °F 15.9 °F 1015.5 in Calm     54 % 0.0 in 0.0 W/m2 CLR
22:23 25.9 °F 16.2 °F 1015.5 in Calm     55 % 0.0 in 0.0 W/m2 CLR
22:28 25.9 °F 16.2 °F 1015.5 in Calm     55 % 0.0 in 0.0 W/m2 CLR
22:33 25.7 °F 15.7 °F 1015.5 in Calm     54 % 0.0 in 0.0 W/m2 CLR
22:38 25.6 °F 15.9 °F 1015.5 in Calm     55 % 0.0 in 0.0 W/m2 CLR
22:43 25.5 °F 15.8 °F 1015.8 in Calm     55 % 0.0 in 0.0 W/m2 CLR
22:48 25.4 °F 15.7 °F 1015.8 in Calm     55 % 0.0 in 0.0 W/m2 CLR
22:53 25.3 °F 15.9 °F 1015.8 in Calm     56 % 0.0 in 0.0 W/m2 CLR
22:58 25.2 °F 15.8 °F 1015.8 in Calm     56 % 0.0 in 0.0 W/m2 CLR
23:03 25.0 °F 15.6 °F 1015.5 in Calm     56 % 0.0 in 0.0 W/m2 CLR
23:08 24.8 °F 15.7 °F 1015.8 in Calm     57 % 0.0 in 0.0 W/m2 CLR
23:13 24.6 °F 15.5 °F 1015.8 in Calm     57 % 0.0 in 0.0 W/m2 CLR
23:18 24.4 °F 15.6 °F 1015.8 in Calm     58 % 0.0 in 0.0 W/m2 CLR
23:23 24.1 °F 15.6 °F 1015.8 in Calm     59 % 0.0 in 0.0 W/m2 CLR
23:28 23.9 °F 15.7 °F 1015.8 in Calm     60 % 0.0 in 0.0 W/m2 CLR
23:33 23.7 °F 15.8 °F 1015.8 in Calm     61 % 0.0 in 0.0 W/m2 CLR
23:38 23.5 °F 15.6 °F 1015.8 in Calm     61 % 0.0 in 0.0 W/m2 CLR
23:43 23.3 °F 15.4 °F 1015.8 in Calm     61 % 0.0 in 0.0 W/m2 CLR
23:48 23.2 °F 15.5 °F 1015.8 in Calm     62 % 0.0 in 0.0 W/m2 CLR
23:53 23.1 °F 15.6 °F 1015.8 in Calm     63 % 0.0 in 0.0 W/m2 CLR
23:58 22.9 °F 15.4 °F 1015.8 in Calm     63 % 0.0 in 0.0 W/m2 CLR
Lo Temps de Massalio
Compliments of Weather Underground - 1.25 mb